Location: Newark
(43.0000°N, 1.6781°W)
Time: 23:14:20
(UTC+00:00)

Vanguard 1 Rocket - Pass Details

Date: 07 October 2022
Orbit: 650 x 4225 km, 34.3° (Epoch: 02 December)

Event Time Altitude Azimuth Distance (km) Brightness Sun altitude
Rises 23:39:00 0° 278° (W) 6,838 12.0 -52.6°
Reaches altitude 10° 23:44:50 10° 271° (W) 5,188 11.2 -52.7°
Enters shadow 23:46:45 14° 267° (W) 4,635 10.9 -52.8°
